KINEIS-5B

Last updated on Sun Apr 12 2026 00:02:47 GMT+0000 (Coordinated Universal Time)

1 62085U 24219E 26101.51001735 .00001045 00000+0 15132-3 0 9995 2 62085 97.9996 265.7617 0003218 115.0745 245.0799 14.78188988 74158
UTC large
Height (km)
Speed (km/s)
/
Latitude / Longitude
Inclination (degrees)
Orbital Period (minutes)
Azimuth
Elevation
Range (km)
Doppler Factor

Next 0 passes for location: London (51.5072 / 0.1276)

Sorry there are no passes over London.
KINEIS-5B